station,date_time,longitude_east,latitude_north,depth,sw_sal,sw_sal_result_value_qualifier,sea_water_temperature,sea_water_temperature_result_value_qualifier,sea_water_pressure,sea_water_pressure_result_value_qualifier,KD_PAR,KD_PAR_result_value_qualifier
CH33-2,2019-01-27T21:00:00Z,-79.10,53.73,1.50,3.06,,-0.27,,, NC,, NC
CH33-2,2019-01-27T21:10:00Z,-79.10,53.73,1.50,3.40,,-0.28,,, NC,, NC
CH33-2,2019-01-27T21:20:00Z,-79.10,53.73,1.50,3.60,,-0.27,,, NC,, NC
CH33-2,2019-01-27T21:30:00Z,-79.10,53.73,1.50,3.58,,-0.28,,, NC,, NC
CH33-2,2019-01-27T21:40:00Z,-79.10,53.73,1.50,3.55,,-0.27,,, NC,, NC
CH33-2,2019-01-27T21:50:00Z,-79.10,53.73,1.50,3.62,,-0.28,,, NC,, NC
CH33-2,2019-01-27T22:00:00Z,-79.10,53.73,1.50,3.75,,-0.30,,, NC,, NC
CH33-2,2019-01-27T22:10:00Z,-79.10,53.73,1.50,3.23,,-0.26,,, NC,, NC
CH33-2,2019-01-27T22:20:00Z,-79.10,53.73,1.50,3.61,,-0.30,,, NC,, NC
CH33-2,2019-01-27T22:30:00Z,-79.10,53.73,1.50,4.11,,-0.31,,, NC,, NC
CH33-2,2019-01-27T22:40:00Z,-79.10,53.73,1.50,3.43,,-0.28,,, NC,, NC
CH33-2,2019-01-27T22:50:00Z,-79.10,53.73,1.50,3.52,,-0.28,,, NC,, NC
CH33-2,2019-01-27T23:00:00Z,-79.10,53.73,1.50,3.38,,-0.27,,, NC,, NC
CH33-2,2019-01-27T23:10:00Z,-79.10,53.73,1.50,3.09,,-0.26,,, NC,, NC
CH33-2,2019-01-27T23:20:00Z,-79.10,53.73,1.50,2.92,,-0.26,,, NC,, NC
CH33-2,2019-01-27T23:30:00Z,-79.10,53.73,1.50,2.86,,-0.26,,, NC,, NC
CH33-2,2019-01-27T23:40:00Z,-79.10,53.73,1.50,3.21,,-0.27,,, NC,, NC
CH33-2,2019-01-27T23:50:00Z,-79.10,53.73,1.50,3.26,,-0.27,,, NC,, NC
CH33-2,2019-01-28T00:00:00Z,-79.10,53.73,1.50,3.17,,-0.27,,, NC,, NC
CH33-2,2019-01-28T00:10:00Z,-79.10,53.73,1.50,2.76,,-0.26,,, NC,, NC
CH33-2,2019-01-28T00:20:00Z,-79.10,53.73,1.50,2.82,,-0.26,,, NC,, NC
CH33-2,2019-01-28T00:30:00Z,-79.10,53.73,1.50,3.25,,-0.27,,, NC,, NC
CH33-2,2019-01-28T00:40:00Z,-79.10,53.73,1.50,3.12,,-0.27,,, NC,, NC
CH33-2,2019-01-28T00:50:00Z,-79.10,53.73,1.50,3.04,,-0.27,,, NC,, NC
CH33-2,2019-01-28T01:00:00Z,-79.10,53.73,1.50,3.12,,-0.28,,, NC,, NC
CH33-2,2019-01-28T01:10:00Z,-79.10,53.73,1.50,3.08,,-0.28,,, NC,, NC
CH33-2,2019-01-28T01:20:00Z,-79.10,53.73,1.50,3.12,,-0.30,,, NC,, NC
CH33-2,2019-01-28T01:30:00Z,-79.10,53.73,1.50,3.07,,-0.27,,, NC,, NC
CH33-2,2019-01-28T01:40:00Z,-79.10,53.73,1.50,3.18,,-0.28,,, NC,, NC
CH33-2,2019-01-28T01:50:00Z,-79.10,53.73,1.50,3.16,,-0.28,,, NC,, NC
CH33-2,2019-01-28T02:00:00Z,-79.10,53.73,1.50,3.09,,-0.28,,, NC,, NC
CH33-2,2019-01-28T02:10:00Z,-79.10,53.73,1.50,3.12,,-0.27,,, NC,, NC
CH33-2,2019-01-28T02:20:00Z,-79.10,53.73,1.50,3.16,,-0.28,,, NC,, NC
CH33-2,2019-01-28T02:30:00Z,-79.10,53.73,1.50,3.08,,-0.28,,, NC,, NC
CH33-2,2019-01-28T02:40:00Z,-79.10,53.73,1.50,3.10,,-0.28,,, NC,, NC
CH33-2,2019-01-28T02:50:00Z,-79.10,53.73,1.50,3.09,,-0.27,,, NC,, NC
CH33-2,2019-01-28T03:00:00Z,-79.10,53.73,1.50,3.30,,-0.27,,, NC,, NC
CH33-2,2019-01-28T03:10:00Z,-79.10,53.73,1.50,3.28,,-0.26,,, NC,, NC
CH33-2,2019-01-28T03:20:00Z,-79.10,53.73,1.50,3.05,,-0.26,,, NC,, NC
CH33-2,2019-01-28T03:30:00Z,-79.10,53.73,1.50,2.91,,-0.27,,, NC,, NC
CH33-2,2019-01-28T03:40:00Z,-79.10,53.73,1.50,2.90,,-0.27,,, NC,, NC
CH33-2,2019-01-28T03:50:00Z,-79.10,53.73,1.50,2.86,,-0.27,,, NC,, NC
CH33-2,2019-01-28T04:00:00Z,-79.10,53.73,1.50,2.80,,-0.27,,, NC,, NC
CH33-2,2019-01-28T04:10:00Z,-79.10,53.73,1.50,2.79,,-0.26,,, NC,, NC
CH33-2,2019-01-28T04:20:00Z,-79.10,53.73,1.50,2.83,,-0.27,,, NC,, NC
CH33-2,2019-01-28T04:30:00Z,-79.10,53.73,1.50,2.85,,-0.27,,, NC,, NC
CH33-2,2019-01-28T04:40:00Z,-79.10,53.73,1.50,2.84,,-0.27,,, NC,, NC
CH33-2,2019-01-28T04:50:00Z,-79.10,53.73,1.50,2.85,,-0.26,,, NC,, NC
CH33-2,2019-01-28T05:00:00Z,-79.10,53.73,1.50,2.93,,-0.26,,, NC,, NC
CH33-2,2019-01-28T05:10:00Z,-79.10,53.73,1.50,2.86,,-0.26,,, NC,, NC
CH33-2,2019-01-28T05:20:00Z,-79.10,53.73,1.50,2.86,,-0.26,,, NC,, NC
CH33-2,2019-01-28T05:30:00Z,-79.10,53.73,1.50,2.89,,-0.26,,, NC,, NC
CH33-2,2019-01-28T05:40:00Z,-79.10,53.73,1.50,2.96,,-0.26,,, NC,, NC
CH33-2,2019-01-28T05:50:00Z,-79.10,53.73,1.50,3.03,,-0.26,,, NC,, NC
CH33-2,2019-01-28T06:00:00Z,-79.10,53.73,1.50,2.96,,-0.26,,, NC,, NC
CH33-2,2019-01-28T06:10:00Z,-79.10,53.73,1.50,2.91,,-0.26,,, NC,, NC
CH33-2,2019-01-28T06:20:00Z,-79.10,53.73,1.50,2.93,,-0.26,,, NC,, NC
CH33-2,2019-01-28T06:30:00Z,-79.10,53.73,1.50,2.95,,-0.27,,, NC,, NC
CH33-2,2019-01-28T06:40:00Z,-79.10,53.73,1.50,2.99,,-0.26,,, NC,, NC
CH33-2,2019-01-28T06:50:00Z,-79.10,53.73,1.50,3.01,,-0.26,,, NC,, NC
CH33-2,2019-01-28T07:00:00Z,-79.10,53.73,1.50,3.01,,-0.27,,, NC,, NC
CH33-2,2019-01-28T07:10:00Z,-79.10,53.73,1.50,2.96,,-0.27,,, NC,, NC
CH33-2,2019-01-28T07:20:00Z,-79.10,53.73,1.50,2.99,,-0.26,,, NC,, NC
CH33-2,2019-01-28T07:30:00Z,-79.10,53.73,1.50,2.98,,-0.27,,, NC,, NC
CH33-2,2019-01-28T07:40:00Z,-79.10,53.73,1.50,2.97,,-0.27,,, NC,, NC
CH33-2,2019-01-28T07:50:00Z,-79.10,53.73,1.50,2.96,,-0.27,,, NC,, NC
CH33-2,2019-01-28T08:00:00Z,-79.10,53.73,1.50,2.95,,-0.27,,, NC,, NC
CH33-2,2019-01-28T08:10:00Z,-79.10,53.73,1.50,2.95,,-0.27,,, NC,, NC
CH33-2,2019-01-28T08:20:00Z,-79.10,53.73,1.50,2.94,,-0.26,,, NC,, NC
CH33-2,2019-01-28T08:30:00Z,-79.10,53.73,1.50,2.94,,-0.26,,, NC,, NC
CH33-2,2019-01-28T08:40:00Z,-79.10,53.73,1.50,2.90,,-0.27,,, NC,, NC
CH33-2,2019-01-28T08:50:00Z,-79.10,53.73,1.50,3.00,,-0.27,,, NC,, NC
CH33-2,2019-01-28T09:00:00Z,-79.10,53.73,1.50,3.15,,-0.28,,, NC,, NC
CH33-2,2019-01-28T09:10:00Z,-79.10,53.73,1.50,3.30,,-0.28,,, NC,, NC
CH33-2,2019-01-28T09:20:00Z,-79.10,53.73,1.50,3.41,,-0.28,,, NC,, NC
CH33-2,2019-01-28T09:30:00Z,-79.10,53.73,1.50,3.11,,-0.28,,, NC,, NC
CH33-2,2019-01-28T09:40:00Z,-79.10,53.73,1.50,3.03,,-0.28,,, NC,, NC
CH33-2,2019-01-28T09:50:00Z,-79.10,53.73,1.50,3.32,,-0.28,,, NC,, NC
CH33-2,2019-01-28T10:00:00Z,-79.10,53.73,1.50,3.38,,-0.28,,, NC,, NC
CH33-2,2019-01-28T10:10:00Z,-79.10,53.73,1.50,3.67,,-0.30,,, NC,, NC
CH33-2,2019-01-28T10:20:00Z,-79.10,53.73,1.50,3.69,,-0.30,,, NC,, NC
CH33-2,2019-01-28T10:30:00Z,-79.10,53.73,1.50,3.57,,-0.28,,, NC,, NC
CH33-2,2019-01-28T10:40:00Z,-79.10,53.73,1.50,3.74,,-0.30,,, NC,, NC
CH33-2,2019-01-28T10:50:00Z,-79.10,53.73,1.50,3.98,,-0.31,,, NC,, NC
CH33-2,2019-01-28T11:00:00Z,-79.10,53.73,1.50,4.15,,-0.32,,, NC,, NC
CH33-2,2019-01-28T11:10:00Z,-79.10,53.73,1.50,3.96,,-0.31,,, NC,, NC
CH33-2,2019-01-28T11:20:00Z,-79.10,53.73,1.50,3.76,,-0.30,,, NC,, NC
CH33-2,2019-01-28T11:30:00Z,-79.10,53.73,1.50,3.67,,-0.28,,, NC,, NC
CH33-2,2019-01-28T11:40:00Z,-79.10,53.73,1.50,3.56,,-0.30,,, NC,, NC
CH33-2,2019-01-28T11:50:00Z,-79.10,53.73,1.50,3.22,,-0.28,,, NC,, NC
CH33-2,2019-01-28T12:00:00Z,-79.10,53.73,1.50,3.12,,-0.28,,, NC,, NC
CH33-2,2019-01-28T12:10:00Z,-79.10,53.73,1.50,3.28,,-0.28,,, NC,, NC
CH33-2,2019-01-28T12:20:00Z,-79.10,53.73,1.50,3.43,,-0.30,,, NC,, NC
CH33-2,2019-01-28T12:30:00Z,-79.10,53.73,1.50,3.54,,-0.28,,, NC,, NC
CH33-2,2019-01-28T12:40:00Z,-79.10,53.73,1.50,3.79,,-0.31,,, NC,, NC
CH33-2,2019-01-28T12:50:00Z,-79.10,53.73,1.50,2.99,,-0.27,,, NC,, NC
CH33-2,2019-01-28T13:00:00Z,-79.10,53.73,1.50,2.95,,-0.28,,, NC,, NC
CH33-2,2019-01-28T13:10:00Z,-79.10,53.73,1.50,2.96,,-0.30,,, NC,, NC
CH33-2,2019-01-28T13:20:00Z,-79.10,53.73,1.50,3.03,,-0.28,,, NC,, NC
CH33-2,2019-01-28T13:30:00Z,-79.10,53.73,1.50,3.14,,-0.30,,, NC,, NC
CH33-2,2019-01-28T13:40:00Z,-79.10,53.73,1.50,3.10,,-0.28,,, NC,, NC
CH33-2,2019-01-28T13:50:00Z,-79.10,53.73,1.50,3.18,,-0.28,,, NC,, NC
CH33-2,2019-01-28T14:00:00Z,-79.10,53.73,1.50,3.18,,-0.30,,, NC,, NC
CH33-2,2019-01-28T14:10:00Z,-79.10,53.73,1.50,3.19,,-0.30,,, NC,, NC
CH33-2,2019-01-28T14:20:00Z,-79.10,53.73,1.50,3.12,,-0.30,,, NC,, NC
CH33-2,2019-01-28T14:30:00Z,-79.10,53.73,1.50,3.12,,-0.30,,, NC,, NC
CH33-2,2019-01-28T14:40:00Z,-79.10,53.73,1.50,3.18,,-0.27,,, NC,, NC
CH33-2,2019-01-28T14:50:00Z,-79.10,53.73,1.50,3.22,,-0.28,,, NC,, NC
CH33-2,2019-01-28T15:00:00Z,-79.10,53.73,1.50,3.22,,-0.28,,, NC,, NC
CH33-2,2019-01-28T15:10:00Z,-79.10,53.73,1.50,3.28,,-0.28,,, NC,, NC
CH33-2,2019-01-28T15:20:00Z,-79.10,53.73,1.50,3.20,,-0.28,,, NC,, NC
CH33-2,2019-01-28T15:30:00Z,-79.10,53.73,1.50,3.16,,-0.30,,, NC,, NC
CH33-2,2019-01-28T15:40:00Z,-79.10,53.73,1.50,3.01,,-0.28,,, NC,, NC
CH33-2,2019-01-28T15:50:00Z,-79.10,53.73,1.50,3.17,,-0.30,,, NC,, NC
CH33-2,2019-01-28T16:00:00Z,-79.10,53.73,1.50,3.04,,-0.28,,, NC,, NC
CH33-2,2019-01-28T16:10:00Z,-79.10,53.73,1.50,2.99,,-0.27,,, NC,, NC
CH33-2,2019-01-28T16:20:00Z,-79.10,53.73,1.50,2.97,,-0.27,,, NC,, NC
CH33-2,2019-01-28T16:30:00Z,-79.10,53.73,1.50,3.08,,-0.27,,, NC,, NC
CH33-2,2019-01-28T16:40:00Z,-79.10,53.73,1.50,3.21,,-0.28,,, NC,, NC
CH33-2,2019-01-28T16:50:00Z,-79.10,53.73,1.50,3.14,,-0.28,,, NC,, NC
CH33-2,2019-01-28T17:00:00Z,-79.10,53.73,1.50,3.21,,-0.28,,, NC,, NC
CH33-2,2019-01-28T17:10:00Z,-79.10,53.73,1.50,3.21,,-0.27,,, NC,, NC
CH33-2,2019-01-28T17:20:00Z,-79.10,53.73,1.50,3.17,,-0.28,,, NC,, NC
CH33-2,2019-01-28T17:30:00Z,-79.10,53.73,1.50,3.04,,-0.27,,, NC,, NC
CH33-2,2019-01-28T17:40:00Z,-79.10,53.73,1.50,3.06,,-0.28,,, NC,, NC
CH33-2,2019-01-28T17:50:00Z,-79.10,53.73,1.50,3.10,,-0.27,,, NC,, NC
CH33-2,2019-01-28T18:00:00Z,-79.10,53.73,1.50,3.06,,-0.28,,, NC,, NC
CH33-2,2019-01-28T18:10:00Z,-79.10,53.73,1.50,3.04,,-0.28,,, NC,, NC
CH33-2,2019-01-28T18:20:00Z,-79.10,53.73,1.50,3.02,,-0.28,,, NC,, NC
CH33-2,2019-01-28T18:30:00Z,-79.10,53.73,1.50,3.03,,-0.28,,, NC,, NC
CH33-2,2019-01-28T18:40:00Z,-79.10,53.73,1.50,3.00,,-0.27,,, NC,, NC
CH33-2,2019-01-28T18:50:00Z,-79.10,53.73,1.50,3.01,,-0.27,,, NC,, NC
CH33-2,2019-01-28T19:00:00Z,-79.10,53.73,1.50,3.11,,-0.27,,, NC,, NC
CH33-2,2019-01-28T19:10:00Z,-79.10,53.73,1.50,3.12,,-0.28,,, NC,, NC
CH33-2,2019-01-28T19:20:00Z,-79.10,53.73,1.50,3.12,,-0.27,,, NC,, NC
CH33-2,2019-01-28T19:30:00Z,-79.10,53.73,1.50,3.11,,-0.28,,, NC,, NC
CH33-2,2019-01-28T19:40:00Z,-79.10,53.73,1.50,3.12,,-0.28,,, NC,, NC
CH33-2,2019-01-28T19:50:00Z,-79.10,53.73,1.50,3.13,,-0.27,,, NC,, NC
CH33-2,2019-01-28T20:00:00Z,-79.10,53.73,1.50,3.24,,-0.28,,, NC,, NC
CH33-2,2019-01-28T20:10:00Z,-79.10,53.73,1.50,3.32,,-0.27,,, NC,, NC
CH33-2,2019-01-28T20:20:00Z,-79.10,53.73,1.50,3.43,,-0.28,,, NC,, NC
CH33-2,2019-01-28T20:30:00Z,-79.10,53.73,1.50,3.48,,-0.30,,, NC,, NC
CH33-2,2019-01-28T20:40:00Z,-79.10,53.73,1.50,3.30,,-0.28,,, NC,, NC
CH33-2,2019-01-28T20:50:00Z,-79.10,53.73,1.50,3.27,,-0.28,,, NC,, NC
CH33-2,2019-01-28T21:00:00Z,-79.10,53.73,1.50,3.34,,-0.28,,, NC,, NC
CH33-2,2019-01-28T21:10:00Z,-79.10,53.73,1.50,3.27,,-0.28,,, NC,, NC
CH33-2,2019-01-28T21:20:00Z,-79.10,53.73,1.50,3.34,,-0.30,,, NC,, NC
CH33-2,2019-01-28T21:30:00Z,-79.10,53.73,1.50,3.38,,-0.31,,, NC,, NC
CH33-2,2019-01-28T21:40:00Z,-79.10,53.73,1.50,3.35,,-0.31,,, NC,, NC
CH33-2,2019-01-28T21:50:00Z,-79.10,53.73,1.50,3.75,,-0.30,,, NC,, NC
CH33-2,2019-01-28T22:00:00Z,-79.10,53.73,1.50,4.05,,-0.32,,, NC,, NC
CH33-2,2019-01-28T22:10:00Z,-79.10,53.73,1.50,4.03,,-0.31,,, NC,, NC
CH33-2,2019-01-28T22:20:00Z,-79.10,53.73,1.50,4.39,,-0.33,,, NC,, NC
CH33-2,2019-01-28T22:30:00Z,-79.10,53.73,1.50,4.71,,-0.34,,, NC,, NC
CH33-2,2019-01-28T22:40:00Z,-79.10,53.73,1.50,4.89,,-0.34,,, NC,, NC
CH33-2,2019-01-28T22:50:00Z,-79.10,53.73,1.50,4.81,,-0.34,,, NC,, NC
CH33-2,2019-01-28T23:00:00Z,-79.10,53.73,1.50,4.91,,-0.34,,, NC,, NC
CH33-2,2019-01-28T23:10:00Z,-79.10,53.73,1.50,4.63,,-0.34,,, NC,, NC
CH33-2,2019-01-28T23:20:00Z,-79.10,53.73,1.50,4.03,,-0.32,,, NC,, NC
CH33-2,2019-01-28T23:30:00Z,-79.10,53.73,1.50,4.17,,-0.32,,, NC,, NC
CH33-2,2019-01-28T23:40:00Z,-79.10,53.73,1.50,4.11,,-0.32,,, NC,, NC
CH33-2,2019-01-28T23:50:00Z,-79.10,53.73,1.50,4.24,,-0.32,,, NC,, NC
CH33-2,2019-01-29T00:00:00Z,-79.10,53.73,1.50,3.61,,-0.30,,, NC,, NC
CH33-2,2019-01-29T00:10:00Z,-79.10,53.73,1.50,3.72,,-0.31,,, NC,, NC
CH33-2,2019-01-29T00:20:00Z,-79.10,53.73,1.50,3.96,,-0.32,,, NC,, NC
CH33-2,2019-01-29T00:30:00Z,-79.10,53.73,1.50,3.91,,-0.31,,, NC,, NC
CH33-2,2019-01-29T00:40:00Z,-79.10,53.73,1.50,3.49,,-0.30,,, NC,, NC
CH33-2,2019-01-29T00:50:00Z,-79.10,53.73,1.50,3.39,,-0.30,,, NC,, NC
CH33-2,2019-01-29T01:00:00Z,-79.10,53.73,1.50,3.52,,-0.30,,, NC,, NC
CH33-2,2019-01-29T01:10:00Z,-79.10,53.73,1.50,3.58,,-0.30,,, NC,, NC
CH33-2,2019-01-29T01:20:00Z,-79.10,53.73,1.50,4.07,,-0.32,,, NC,, NC
CH33-2,2019-01-29T01:30:00Z,-79.10,53.73,1.50,3.60,,-0.31,,, NC,, NC
CH33-2,2019-01-29T01:40:00Z,-79.10,53.73,1.50,4.00,,-0.32,,, NC,, NC
CH33-2,2019-01-29T01:50:00Z,-79.10,53.73,1.50,3.54,,-0.30,,, NC,, NC
CH33-2,2019-01-29T02:00:00Z,-79.10,53.73,1.50,3.69,,-0.30,,, NC,, NC
CH33-2,2019-01-29T02:10:00Z,-79.10,53.73,1.50,3.83,,-0.31,,, NC,, NC
CH33-2,2019-01-29T02:20:00Z,-79.10,53.73,1.50,3.43,,-0.30,,, NC,, NC
CH33-2,2019-01-29T02:30:00Z,-79.10,53.73,1.50,3.54,,-0.32,,, NC,, NC
CH33-2,2019-01-29T02:40:00Z,-79.10,53.73,1.50,3.46,,-0.32,,, NC,, NC
CH33-2,2019-01-29T02:50:00Z,-79.10,53.73,1.50,3.40,,-0.30,,, NC,, NC
CH33-2,2019-01-29T03:00:00Z,-79.10,53.73,1.50,3.30,,-0.30,,, NC,, NC
CH33-2,2019-01-29T03:10:00Z,-79.10,53.73,1.50,3.53,,-0.30,,, NC,, NC
CH33-2,2019-01-29T03:20:00Z,-79.10,53.73,1.50,3.45,,-0.30,,, NC,, NC
CH33-2,2019-01-29T03:30:00Z,-79.10,53.73,1.50,3.48,,-0.31,,, NC,, NC
CH33-2,2019-01-29T03:40:00Z,-79.10,53.73,1.50,3.51,,-0.30,,, NC,, NC
CH33-2,2019-01-29T03:50:00Z,-79.10,53.73,1.50,3.34,,-0.30,,, NC,, NC
CH33-2,2019-01-29T04:00:00Z,-79.10,53.73,1.50,3.24,,-0.28,,, NC,, NC
CH33-2,2019-01-29T04:10:00Z,-79.10,53.73,1.50,3.13,,-0.28,,, NC,, NC
CH33-2,2019-01-29T04:20:00Z,-79.10,53.73,1.50,3.13,,-0.28,,, NC,, NC
CH33-2,2019-01-29T04:30:00Z,-79.10,53.73,1.50,3.06,,-0.30,,, NC,, NC
CH33-2,2019-01-29T04:40:00Z,-79.10,53.73,1.50,3.04,,-0.27,,, NC,, NC
CH33-2,2019-01-29T04:50:00Z,-79.10,53.73,1.50,3.04,,-0.28,,, NC,, NC
CH33-2,2019-01-29T05:00:00Z,-79.10,53.73,1.50,3.14,,-0.30,,, NC,, NC
CH33-2,2019-01-29T05:10:00Z,-79.10,53.73,1.50,3.15,,-0.30,,, NC,, NC
CH33-2,2019-01-29T05:20:00Z,-79.10,53.73,1.50,3.40,,-0.28,,, NC,, NC
CH33-2,2019-01-29T05:30:00Z,-79.10,53.73,1.50,3.26,,-0.30,,, NC,, NC
CH33-2,2019-01-29T05:40:00Z,-79.10,53.73,1.50,3.16,,-0.28,,, NC,, NC
CH33-2,2019-01-29T05:50:00Z,-79.10,53.73,1.50,3.38,,-0.30,,, NC,, NC
CH33-2,2019-01-29T06:00:00Z,-79.10,53.73,1.50,3.24,,-0.30,,, NC,, NC
CH33-2,2019-01-29T06:10:00Z,-79.10,53.73,1.50,3.16,,-0.28,,, NC,, NC
CH33-2,2019-01-29T06:20:00Z,-79.10,53.73,1.50,3.14,,-0.30,,, NC,, NC
CH33-2,2019-01-29T06:30:00Z,-79.10,53.73,1.50,3.12,,-0.28,,, NC,, NC
CH33-2,2019-01-29T06:40:00Z,-79.10,53.73,1.50,3.12,,-0.30,,, NC,, NC
CH33-2,2019-01-29T06:50:00Z,-79.10,53.73,1.50,3.11,,-0.28,,, NC,, NC
CH33-2,2019-01-29T07:00:00Z,-79.10,53.73,1.50,3.13,,-0.28,,, NC,, NC
CH33-2,2019-01-29T07:10:00Z,-79.10,53.73,1.50,3.11,,-0.30,,, NC,, NC
CH33-2,2019-01-29T07:20:00Z,-79.10,53.73,1.50,3.11,,-0.28,,, NC,, NC
CH33-2,2019-01-29T07:30:00Z,-79.10,53.73,1.50,3.12,,-0.28,,, NC,, NC
CH33-2,2019-01-29T07:40:00Z,-79.10,53.73,1.50,3.13,,-0.28,,, NC,, NC
CH33-2,2019-01-29T07:50:00Z,-79.10,53.73,1.50,3.13,,-0.30,,, NC,, NC
CH33-2,2019-01-29T08:00:00Z,-79.10,53.73,1.50,3.14,,-0.30,,, NC,, NC
CH33-2,2019-01-29T08:10:00Z,-79.10,53.73,1.50,3.16,,-0.28,,, NC,, NC
CH33-2,2019-01-29T08:20:00Z,-79.10,53.73,1.50,3.24,,-0.30,,, NC,, NC
CH33-2,2019-01-29T08:30:00Z,-79.10,53.73,1.50,3.27,,-0.28,,, NC,, NC
CH33-2,2019-01-29T08:40:00Z,-79.10,53.73,1.50,3.29,,-0.30,,, NC,, NC
CH33-2,2019-01-29T08:50:00Z,-79.10,53.73,1.50,3.26,,-0.28,,, NC,, NC
CH33-2,2019-01-29T09:00:00Z,-79.10,53.73,1.50,3.23,,-0.28,,, NC,, NC
CH33-2,2019-01-29T09:10:00Z,-79.10,53.73,1.50,3.21,,-0.28,,, NC,, NC
CH33-2,2019-01-29T09:20:00Z,-79.10,53.73,1.50,3.21,,-0.30,,, NC,, NC
CH33-2,2019-01-29T09:30:00Z,-79.10,53.73,1.50,3.27,,-0.30,,, NC,, NC
CH33-2,2019-01-29T09:40:00Z,-79.10,53.73,1.50,3.38,,-0.28,,, NC,, NC
CH33-2,2019-01-29T09:50:00Z,-79.10,53.73,1.50,3.28,,-0.30,,, NC,, NC
CH33-2,2019-01-29T10:00:00Z,-79.10,53.73,1.50,3.28,,-0.30,,, NC,, NC
CH33-2,2019-01-29T10:10:00Z,-79.10,53.73,1.50,3.88,,-0.31,,, NC,, NC
CH33-2,2019-01-29T10:20:00Z,-79.10,53.73,1.50,3.96,,-0.31,,, NC,, NC
CH33-2,2019-01-29T10:30:00Z,-79.10,53.73,1.50,4.18,,-0.33,,, NC,, NC
CH33-2,2019-01-29T10:40:00Z,-79.10,53.73,1.50,4.13,,-0.32,,, NC,, NC
CH33-2,2019-01-29T10:50:00Z,-79.10,53.73,1.50,4.40,,-0.32,,, NC,, NC
CH33-2,2019-01-29T11:00:00Z,-79.10,53.73,1.50,4.02,,-0.32,,, NC,, NC
CH33-2,2019-01-29T11:10:00Z,-79.10,53.73,1.50,5.18,,-0.34,,, NC,, NC
CH33-2,2019-01-29T11:20:00Z,-79.10,53.73,1.50,4.77,,-0.33,,, NC,, NC
CH33-2,2019-01-29T11:30:00Z,-79.10,53.73,1.50,4.87,,-0.34,,, NC,, NC
CH33-2,2019-01-29T11:40:00Z,-79.10,53.73,1.50,4.66,,-0.33,,, NC,, NC
CH33-2,2019-01-29T11:50:00Z,-79.10,53.73,1.50,4.33,,-0.33,,, NC,, NC
CH33-2,2019-01-29T12:00:00Z,-79.10,53.73,1.50,4.21,,-0.32,,, NC,, NC
CH33-2,2019-01-29T12:10:00Z,-79.10,53.73,1.50,4.04,,-0.32,,, NC,, NC
CH33-2,2019-01-29T12:20:00Z,-79.10,53.73,1.50,4.02,,-0.32,,, NC,, NC
CH33-2,2019-01-29T12:30:00Z,-79.10,53.73,1.50,4.10,,-0.32,,, NC,, NC
CH33-2,2019-01-29T12:40:00Z,-79.10,53.73,1.50,3.88,,-0.31,,, NC,, NC
CH33-2,2019-01-29T12:50:00Z,-79.10,53.73,1.50,3.36,,-0.30,,, NC,, NC
CH33-2,2019-01-29T13:00:00Z,-79.10,53.73,1.50,3.27,,-0.30,,, NC,, NC
CH33-2,2019-01-29T13:10:00Z,-79.10,53.73,1.50,3.44,,-0.31,,, NC,, NC
CH33-2,2019-01-29T13:20:00Z,-79.10,53.73,1.50,3.40,,-0.30,,, NC,, NC
CH33-2,2019-01-29T13:30:00Z,-79.10,53.73,1.50,3.26,,-0.31,,, NC,, NC
CH33-2,2019-01-29T13:40:00Z,-79.10,53.73,1.50,3.11,,-0.30,,, NC,, NC
CH33-2,2019-01-29T13:50:00Z,-79.10,53.73,1.50,3.45,,-0.31,,, NC,, NC
CH33-2,2019-01-29T14:00:00Z,-79.10,53.73,1.50,3.32,,-0.30,,, NC,, NC
CH33-2,2019-01-29T14:10:00Z,-79.10,53.73,1.50,3.46,,-0.31,,, NC,, NC
CH33-2,2019-01-29T14:20:00Z,-79.10,53.73,1.50,3.21,,-0.30,,, NC,, NC
CH33-2,2019-01-29T14:30:00Z,-79.10,53.73,1.50,3.17,,-0.31,,, NC,, NC
CH33-2,2019-01-29T14:40:00Z,-79.10,53.73,1.50,3.12,,-0.31,,, NC,, NC
CH33-2,2019-01-29T14:50:00Z,-79.10,53.73,1.50,3.18,,-0.31,,, NC,, NC
CH33-2,2019-01-29T15:00:00Z,-79.10,53.73,1.50,3.25,,-0.31,,, NC,, NC
CH33-2,2019-01-29T15:10:00Z,-79.10,53.73,1.50,3.17,,-0.30,,, NC,, NC
CH33-2,2019-01-29T15:20:00Z,-79.10,53.73,1.50,3.16,,-0.28,,, NC,, NC
CH33-2,2019-01-29T15:30:00Z,-79.10,53.73,1.50,3.12,,-0.30,,, NC,, NC
CH33-2,2019-01-29T15:40:00Z,-79.10,53.73,1.50,3.12,,-0.28,,, NC,, NC
CH33-2,2019-01-29T15:50:00Z,-79.10,53.73,1.50,3.30,,-0.30,,, NC,, NC
CH33-2,2019-01-29T16:00:00Z,-79.10,53.73,1.50,3.26,,-0.28,,, NC,, NC
CH33-2,2019-01-29T16:10:00Z,-79.10,53.73,1.50,3.25,,-0.31,,, NC,, NC
CH33-2,2019-01-29T16:20:00Z,-79.10,53.73,1.50,3.33,,-0.28,,, NC,, NC
CH33-2,2019-01-29T16:30:00Z,-79.10,53.73,1.50,3.39,,-0.30,,, NC,, NC
CH33-2,2019-01-29T16:40:00Z,-79.10,53.73,1.50,3.49,,-0.28,,, NC,, NC
CH33-2,2019-01-29T16:50:00Z,-79.10,53.73,1.50,3.30,,-0.28,,, NC,, NC
CH33-2,2019-01-29T17:00:00Z,-79.10,53.73,1.50,3.14,,-0.30,,, NC,, NC
CH33-2,2019-01-29T17:10:00Z,-79.10,53.73,1.50,3.10,,-0.30,,, NC,, NC
CH33-2,2019-01-29T17:20:00Z,-79.10,53.73,1.50,3.07,,-0.30,,, NC,, NC
CH33-2,2019-01-29T17:30:00Z,-79.10,53.73,1.50,3.04,,-0.28,,, NC,, NC
CH33-2,2019-01-29T17:40:00Z,-79.10,53.73,1.50,2.99,,-0.30,,, NC,, NC
CH33-2,2019-01-29T17:50:00Z,-79.10,53.73,1.50,2.96,,-0.30,,, NC,, NC
CH33-2,2019-01-29T18:00:00Z,-79.10,53.73,1.50,2.98,,-0.30,,, NC,, NC
CH33-2,2019-01-29T18:10:00Z,-79.10,53.73,1.50,2.95,,-0.30,,, NC,, NC
CH33-2,2019-01-29T18:20:00Z,-79.10,53.73,1.50,3.00,,-0.30,,, NC,, NC
CH33-2,2019-01-29T18:30:00Z,-79.10,53.73,1.50,2.96,,-0.30,,, NC,, NC
CH33-2,2019-01-29T18:40:00Z,-79.10,53.73,1.50,2.93,,-0.28,,, NC,, NC
CH33-2,2019-01-29T18:50:00Z,-79.10,53.73,1.50,2.98,,-0.30,,, NC,, NC
CH33-2,2019-01-29T19:00:00Z,-79.10,53.73,1.50,3.29,,-0.30,,, NC,, NC
CH33-2,2019-01-29T19:10:00Z,-79.10,53.73,1.50,3.00,,-0.30,,, NC,, NC
CH33-2,2019-01-29T19:20:00Z,-79.10,53.73,1.50,3.11,,-0.30,,, NC,, NC
CH33-2,2019-01-29T19:30:00Z,-79.10,53.73,1.50,3.03,,-0.30,,, NC,, NC
CH33-2,2019-01-29T19:40:00Z,-79.10,53.73,1.50,3.02,,-0.30,,, NC,, NC
CH33-2,2019-01-29T19:50:00Z,-79.10,53.73,1.50,3.03,,-0.30,,, NC,, NC
CH33-2,2019-01-29T20:00:00Z,-79.10,53.73,1.50,3.07,,-0.30,,, NC,, NC
CH33-2,2019-01-29T20:10:00Z,-79.10,53.73,1.50,3.08,,-0.30,,, NC,, NC
CH33-2,2019-01-29T20:20:00Z,-79.10,53.73,1.50,3.09,,-0.28,,, NC,, NC
CH33-2,2019-01-29T20:30:00Z,-79.10,53.73,1.50,3.05,,-0.28,,, NC,, NC
CH33-2,2019-01-29T20:40:00Z,-79.10,53.73,1.50,3.02,,-0.28,,, NC,, NC
CH33-2,2019-01-29T20:50:00Z,-79.10,53.73,1.50,3.18,,-0.28,,, NC,, NC
CH33-2,2019-01-29T21:00:00Z,-79.10,53.73,1.50,3.32,,-0.30,,, NC,, NC
CH33-2,2019-01-29T21:10:00Z,-79.10,53.73,1.50,3.33,,-0.30,,, NC,, NC
CH33-2,2019-01-29T21:20:00Z,-79.10,53.73,1.50,3.28,,-0.31,,, NC,, NC
CH33-2,2019-01-29T21:30:00Z,-79.10,53.73,1.50,3.16,,-0.30,,, NC,, NC
CH33-2,2019-01-29T21:40:00Z,-79.10,53.73,1.50,3.18,,-0.30,,, NC,, NC
CH33-2,2019-01-29T21:50:00Z,-79.10,53.73,1.50,3.16,,-0.31,,, NC,, NC
CH33-2,2019-01-29T22:00:00Z,-79.10,53.73,1.50,3.22,,-0.30,,, NC,, NC
CH33-2,2019-01-29T22:10:00Z,-79.10,53.73,1.50,3.36,,-0.30,,, NC,, NC
CH33-2,2019-01-29T22:20:00Z,-79.10,53.73,1.50,3.38,,-0.30,,, NC,, NC
CH33-2,2019-01-29T22:30:00Z,-79.10,53.73,1.50,3.49,,-0.31,,, NC,, NC
CH33-2,2019-01-29T22:40:00Z,-79.10,53.73,1.50,3.67,,-0.31,,, NC,, NC
CH33-2,2019-01-29T22:50:00Z,-79.10,53.73,1.50,3.25,,-0.31,,, NC,, NC
CH33-2,2019-01-29T23:00:00Z,-79.10,53.73,1.50,3.35,,-0.31,,, NC,, NC
CH33-2,2019-01-29T23:10:00Z,-79.10,53.73,1.50,3.65,,-0.31,,, NC,, NC
CH33-2,2019-01-29T23:20:00Z,-79.10,53.73,1.50,3.63,,-0.30,,, NC,, NC
CH33-2,2019-01-29T23:30:00Z,-79.10,53.73,1.50,3.47,,-0.31,,, NC,, NC
CH33-2,2019-01-29T23:40:00Z,-79.10,53.73,1.50,3.32,,-0.30,,, NC,, NC
CH33-2,2019-01-29T23:50:00Z,-79.10,53.73,1.50,3.78,,-0.32,,, NC,, NC
CH33-2,2019-01-30T00:00:00Z,-79.10,53.73,1.50,3.68,,-0.32,,, NC,, NC
CH33-2,2019-01-30T00:10:00Z,-79.10,53.73,1.50,3.31,,-0.30,,, NC,, NC
CH33-2,2019-01-30T00:20:00Z,-79.10,53.73,1.50,3.41,,-0.31,,, NC,, NC
CH33-2,2019-01-30T00:30:00Z,-79.10,53.73,1.50,2.96,,-0.30,,, NC,, NC
CH33-2,2019-01-30T00:40:00Z,-79.10,53.73,1.50,2.93,,-0.30,,, NC,, NC
CH33-2,2019-01-30T00:50:00Z,-79.10,53.73,1.50,2.87,,-0.28,,, NC,, NC
CH33-2,2019-01-30T01:00:00Z,-79.10,53.73,1.50,2.85,,-0.30,,, NC,, NC
CH33-2,2019-01-30T01:10:00Z,-79.10,53.73,1.50,2.90,,-0.30,,, NC,, NC
CH33-2,2019-01-30T01:20:00Z,-79.10,53.73,1.50,2.93,,-0.30,,, NC,, NC
CH33-2,2019-01-30T01:30:00Z,-79.10,53.73,1.50,2.91,,-0.30,,, NC,, NC
CH33-2,2019-01-30T01:40:00Z,-79.10,53.73,1.50,2.89,,-0.28,,, NC,, NC
CH33-2,2019-01-30T01:50:00Z,-79.10,53.73,1.50,2.90,,-0.28,,, NC,, NC
CH33-2,2019-01-30T02:00:00Z,-79.10,53.73,1.50,2.76,,-0.27,,, NC,, NC
CH33-2,2019-01-30T02:10:00Z,-79.10,53.73,1.50,2.70,,-0.27,,, NC,, NC
CH33-2,2019-01-30T02:20:00Z,-79.10,53.73,1.50,2.82,,-0.27,,, NC,, NC
CH33-2,2019-01-30T02:30:00Z,-79.10,53.73,1.50,2.90,,-0.28,,, NC,, NC
CH33-2,2019-01-30T02:40:00Z,-79.10,53.73,1.50,2.87,,-0.28,,, NC,, NC
CH33-2,2019-01-30T02:50:00Z,-79.10,53.73,1.50,2.81,,-0.30,,, NC,, NC
CH33-2,2019-01-30T03:00:00Z,-79.10,53.73,1.50,2.80,,-0.28,,, NC,, NC
CH33-2,2019-01-30T03:10:00Z,-79.10,53.73,1.50,2.81,,-0.28,,, NC,, NC
CH33-2,2019-01-30T03:20:00Z,-79.10,53.73,1.50,2.83,,-0.30,,, NC,, NC
CH33-2,2019-01-30T03:30:00Z,-79.10,53.73,1.50,2.80,,-0.28,,, NC,, NC
CH33-2,2019-01-30T03:40:00Z,-79.10,53.73,1.50,2.79,,-0.27,,, NC,, NC
CH33-2,2019-01-30T03:50:00Z,-79.10,53.73,1.50,2.72,,-0.28,,, NC,, NC
CH33-2,2019-01-30T04:00:00Z,-79.10,53.73,1.50,2.75,,-0.28,,, NC,, NC
CH33-2,2019-01-30T04:10:00Z,-79.10,53.73,1.50,2.70,,-0.30,,, NC,, NC
CH33-2,2019-01-30T04:20:00Z,-79.10,53.73,1.50,2.72,,-0.28,,, NC,, NC
CH33-2,2019-01-30T04:30:00Z,-79.10,53.73,1.50,2.85,,-0.28,,, NC,, NC
CH33-2,2019-01-30T04:40:00Z,-79.10,53.73,1.50,3.06,,-0.30,,, NC,, NC
CH33-2,2019-01-30T04:50:00Z,-79.10,53.73,1.50,3.12,,-0.30,,, NC,, NC
CH33-2,2019-01-30T05:00:00Z,-79.10,53.73,1.50,3.24,,-0.30,,, NC,, NC
CH33-2,2019-01-30T05:10:00Z,-79.10,53.73,1.50,3.13,,-0.30,,, NC,, NC
CH33-2,2019-01-30T05:20:00Z,-79.10,53.73,1.50,3.06,,-0.28,,, NC,, NC
CH33-2,2019-01-30T05:30:00Z,-79.10,53.73,1.50,2.84,,-0.28,,, NC,, NC
CH33-2,2019-01-30T05:40:00Z,-79.10,53.73,1.50,2.73,,-0.28,,, NC,, NC
CH33-2,2019-01-30T05:50:00Z,-79.10,53.73,1.50,2.65,,-0.28,,, NC,, NC
CH33-2,2019-01-30T06:00:00Z,-79.10,53.73,1.50,2.60,,-0.27,,, NC,, NC
CH33-2,2019-01-30T06:10:00Z,-79.10,53.73,1.50,2.95,,-0.28,,, NC,, NC